Location: ????????
(55.6189°N, 38.3031°E)
Time: 21:39:39
(UTC+00:00)

Cosmos 1447 Rocket - Pass Details

Date: 15 November 2019
Orbit: 955 x 995 km, 82.9° (Epoch: 09 December)

Event Time Altitude Azimuth Distance (km) Brightness Sun altitude
Rises 02:03:33 0° 347° (NNW) 3,724 7.5 -24.6°
Reaches altitude 10° 02:06:05 10° 346° (NNW) 2,773 6.8 -24.2°
Maximum altitude 02:12:27 76° 263° (W) 1,029 4.4 -23.3°
Drops below altitude 10° 02:18:46 10° 179° (S) 2,755 6.9 -22.5°
Sets 02:21:17 0° 177° (S) 3,697 7.6 -22.1°
